| time (UTC) | temp F | wind direction | speed MPH | gust MPH | rain 1hr in | rain 24hr in | rain mn in | humidity % | barometer mb |
| 20260507022025 | 50 | 300 | 5.0 | 0.0 | 0.00 | 0.00 | 0.00 | 87 | |
| 20260507012116 | 50 | 310 | 5.0 | 0.0 | 0.00 | 0.00 | 0.00 | 93 | |
| 20260507002026 | 50 | 350 | 7.0 | 0.0 | 0.00 | 0.00 | 0.00 | 93 | |
| 20260506232026 | 50 | 350 | 14.0 | 0.0 | 0.00 | 0.00 | 0.00 | 93 | |
| 20260506222247 | 54 | 260 | 14.0 | 0.0 | 0.00 | 0.00 | 0.00 | 81 | |
| 20260506212048 | 52 | 180 | 9.0 | 0.0 | 0.00 | 0.00 | 0.00 | 93 | |
| 20260506202048 | 52 | 50 | 9.0 | 0.0 | 0.00 | 0.00 | 0.00 | 93 | |
| 20260506192209 | 54 | 20 | 12.0 | 0.0 | 0.00 | 0.00 | 0.00 | 87 | |
| 20260506182106 | 63 | 170 | 9.0 | 0.0 | 0.00 | 0.00 | 0.00 | 55 | |
| 20260506172030 | 64 | 170 | 18.0 | 29.0 | 0.00 | 0.00 | 0.00 | 48 | |
| 20260506162248 | 64 | 170 | 18.0 | 0.0 | 0.00 | 0.00 | 0.00 | 52 | |
| 20260506152105 | 66 | 160 | 18.0 | 0.0 | 0.00 | 0.00 | 0.00 | 48 | |
| 20260506142033 | 64 | 180 | 18.0 | 0.0 | 0.00 | 0.00 | 0.00 | 48 | |
| 20260506132033 | 64 | 180 | 16.0 | 0.0 | 0.00 | 0.00 | 0.00 | 48 | |
| 20260506122033 | 66 | 190 | 12.0 | 0.0 | 0.00 | 0.00 | 0.00 | 45 | |
| 20260506112027 | 63 | 200 | 9.0 | 0.0 | 0.00 | 0.00 | 0.00 | 55 | |
| 20260506102217 | 63 | 220 | 12.0 | 0.0 | 0.00 | 0.00 | 0.00 | 51 | |
| 20260506092000 | 61 | 230 | 12.0 | 0.0 | 0.00 | 0.00 | 0.00 | 63 | |
| 20260506082026 | 57 | 270 | 14.0 | 0.0 | 0.00 | 0.00 | 0.00 | 71 | |
| 20260506072027 | 55 | 260 | 16.0 | 0.0 | 0.00 | 0.00 | 0.00 | 71 | |
| 20260506062051 | 54 | 270 | 18.0 | 0.0 | 0.00 | 0.00 | 0.00 | 76 | |
| 20260506042231 | 50 | 240 | 9.0 | 0.0 | 0.00 | 0.00 | 0.00 | 99 | |
| 20260506032029 | 50 | 260 | 9.0 | 0.0 | 0.00 | 0.00 | 0.00 | 99 |